• Em Portugal
  • Lista de países
  • Para 7 dias
  • Temperatura da água
  • Mapas de satélite
  • Mapa do tempo
  • Widgets de tempo
  • user-avatar
    Iniciar Sessão

    Previsão horária em Kociolki

    Hoje, 18 Outubro, Quinta-feira

    Tempo Temperatura Precipitação Vento Pressão Humidade
    00:00 +10°C° 0 mm 2 m/s 748 mmHg 68%
    01:00 +10°C° 0 mm 2 m/s 747 mmHg 70%
    02:00 +10°C° 0 mm 2 m/s 747 mmHg 72%
    03:00 +9°C° 0 mm 2 m/s 747 mmHg 75%
    04:00 +9°C° 0 mm 2 m/s 747 mmHg 78%
    05:00 +9°C° 0 mm 2 m/s 746 mmHg 81%
    06:00 +9°C° 0 mm 2 m/s 746 mmHg 82%
    07:00 +9°C° 0 mm 2 m/s 746 mmHg 83%
    08:00 +9°C° 0 mm 2 m/s 746 mmHg 84%
    09:00 +12°C° 0 mm 2 m/s 746 mmHg 77%
    10:00 +14°C° 0 mm 2 m/s 746 mmHg 70%
    11:00 +16°C° 0 mm 2 m/s 746 mmHg 62%
    12:00 +17°C° 0 mm 2 m/s 746 mmHg 58%
    13:00 +18°C° 0 mm 2 m/s 745 mmHg 54%
    14:00 +19°C° 0 mm 2 m/s 745 mmHg 51%
    15:00 +18°C° 0 mm 2 m/s 745 mmHg 55%
    16:00 +18°C° 0 mm 1 m/s 745 mmHg 59%
    17:00 +15°C° 0 mm 1 m/s 744 mmHg 64%
    18:00 +14°C° 0 mm 1 m/s 745 mmHg 67%
    19:00 +13°C° 0 mm 1 m/s 745 mmHg 70%
    20:00 +13°C° 0 mm 1 m/s 745 mmHg 73%
    21:00 +12°C° 0 mm 1 m/s 745 mmHg 74%
    22:00 +12°C° 0 mm 1 m/s 745 mmHg 76%
    23:00 +11°C° 0 mm 1 m/s 745 mmHg 77%

    Amanhã, 19 Outubro, Sexta-feira

    Tempo Temperatura Precipitação Vento Pressão Humidade
    00:00 +11°C° 0 mm 1 m/s 745 mmHg 79%
    01:00 +11°C° 0 mm 1 m/s 745 mmHg 81%
    02:00 +9°C° 0 mm 2 m/s 745 mmHg 84%
    03:00 +9°C° 0 mm 2 m/s 745 mmHg 85%
    04:00 +9°C° 0 mm 2 m/s 745 mmHg 87%
    05:00 +9°C° 0 mm 2 m/s 745 mmHg 89%
    06:00 +8°C° 0 mm 2 m/s 745 mmHg 91%
    07:00 +8°C° 0 mm 2 m/s 746 mmHg 92%
    08:00 +8°C° 0 mm 2 m/s 746 mmHg 94%
    09:00 +9°C° 0 mm 2 m/s 746 mmHg 90%
    10:00 +10°C° 0 mm 3 m/s 747 mmHg 85%
    11:00 +11°C° 0 mm 3 m/s 747 mmHg 81%
    12:00 +11°C° 0 mm 3 m/s 747 mmHg 79%
    13:00 +11°C° 0 mm 3 m/s 747 mmHg 76%
    14:00 +11°C° 0 mm 3 m/s 747 mmHg 74%
    15:00 +12°C° 0 mm 2 m/s 747 mmHg 75%
    16:00 +10°C° 0 mm 2 m/s 747 mmHg 75%
    17:00 +9°C° 0 mm 2 m/s 748 mmHg 76%
    18:00 +8°C° 0 mm 2 m/s 748 mmHg 79%
    19:00 +7°C° 0 mm 2 m/s 748 mmHg 83%
    20:00 +7°C° 0 mm 1 m/s 748 mmHg 87%
    21:00 +7°C° 0 mm 1 m/s 749 mmHg 88%
    22:00 +6°C° 0 mm 1 m/s 749 mmHg 89%
    23:00 +6°C° 0 mm 1 m/s 749 mmHg 90%

    Depois de amanhã, 20 Outubro, Sábado

    Tempo Temperatura Precipitação Vento Pressão Humidade
    00:00 +6°C° 0 mm 1 m/s 749 mmHg 91%
    01:00 +5°C° 0 mm 1 m/s 749 mmHg 91%
    02:00 +5°C° 0 mm 1 m/s 749 mmHg 91%
    03:00 +5°C° 0 mm 1 m/s 749 mmHg 91%
    04:00 +4°C° 0 mm 0 m/s 749 mmHg 91%
    05:00 +3°C° 0 mm 0 m/s 749 mmHg 91%
    06:00 +4°C° 0 mm 0 m/s 749 mmHg 90%
    07:00 +5°C° 0 mm 1 m/s 750 mmHg 90%
    08:00 +5°C° 0 mm 1 m/s 750 mmHg 89%
    09:00 +7°C° 0 mm 1 m/s 750 mmHg 82%
    10:00 +8°C° 0 mm 1 m/s 750 mmHg 74%
    11:00 +9°C° 0 mm 2 m/s 750 mmHg 66%
    12:00 +10°C° 0 mm 2 m/s 750 mmHg 64%
    13:00 +10°C° 0 mm 3 m/s 750 mmHg 61%
    14:00 +11°C° 0 mm 3 m/s 749 mmHg 59%
    15:00 +10°C° 0 mm 3 m/s 749 mmHg 65%
    16:00 +10°C° 0 mm 3 m/s 749 mmHg 70%
    17:00 +9°C° 0 mm 3 m/s 749 mmHg 76%
    18:00 +9°C° 0 mm 3 m/s 749 mmHg 78%
    19:00 +8°C° 0 mm 3 m/s 749 mmHg 80%
    20:00 +8°C° 0 mm 3 m/s 749 mmHg 82%
    21:00 +8°C° 0.3 mm 3 m/s 749 mmHg 84%
    22:00 +8°C° 0.3 mm 3 m/s 748 mmHg 85%
    23:00 +8°C° 0.3 mm 3 m/s 748 mmHg 87%

    21 Outubro, Domingo

    Tempo Temperatura Precipitação Vento Pressão Humidade
    00:00 +7°C° 0.3 mm 3 m/s 748 mmHg 88%
    01:00 +6°C° 0.3 mm 4 m/s 748 mmHg 89%
    02:00 +6°C° 0.3 mm 4 m/s 748 mmHg 90%
    03:00 +5°C° 0 mm 4 m/s 748 mmHg 92%
    04:00 +5°C° 0 mm 3 m/s 748 mmHg 93%
    05:00 +4°C° 0 mm 3 m/s 749 mmHg 95%
    06:00 +4°C° 0 mm 3 m/s 749 mmHg 93%
    07:00 +4°C° 0 mm 3 m/s 749 mmHg 92%
    08:00 +4°C° 0 mm 3 m/s 750 mmHg 90%
    09:00 +5°C° 0 mm 3 m/s 750 mmHg 85%
    10:00 +7°C° 0 mm 3 m/s 750 mmHg 80%
    11:00 +8°C° 0 mm 3 m/s 751 mmHg 76%
    12:00 +9°C° 0 mm 3 m/s 751 mmHg 73%
    13:00 +9°C° 0 mm 3 m/s 751 mmHg 70%
    14:00 +10°C° 0 mm 3 m/s 751 mmHg 67%
    15:00 +9°C° 0 mm 2 m/s 751 mmHg 70%
    16:00 +8°C° 0 mm 2 m/s 751 mmHg 73%
    17:00 +9°C° 0 mm 1 m/s 750 mmHg 76%
    18:00 +8°C° 0 mm 1 m/s 751 mmHg 80%
    19:00 +7°C° 0 mm 1 m/s 751 mmHg 83%
    20:00 +6°C° 0 mm 1 m/s 751 mmHg 87%
    21:00 +6°C° 0 mm 1 m/s 751 mmHg 88%
    22:00 +5°C° 0 mm 2 m/s 750 mmHg 89%
    23:00 +4°C° 0 mm 2 m/s 750 mmHg 90%

    22 Outubro, Segunda-feira

    Tempo Temperatura Precipitação Vento Pressão Humidade
    00:00 +4°C° 0 mm 2 m/s 750 mmHg 90%
    01:00 +3°C° 0 mm 3 m/s 750 mmHg 91%
    02:00 +3°C° 0 mm 3 m/s 750 mmHg 91%
    03:00 +3°C° 0 mm 3 m/s 749 mmHg 89%
    04:00 +3°C° 0 mm 3 m/s 749 mmHg 88%
    05:00 +4°C° 0 mm 4 m/s 749 mmHg 86%
    06:00 +4°C° 0 mm 4 m/s 748 mmHg 84%
    07:00 +5°C° 0 mm 4 m/s 748 mmHg 82%
    08:00 +5°C° 0 mm 5 m/s 748 mmHg 80%
    09:00 +5°C° 0.1 mm 5 m/s 748 mmHg 80%
    10:00 +6°C° 0.1 mm 5 m/s 747 mmHg 79%
    11:00 +7°C° 0.1 mm 5 m/s 747 mmHg 79%
    12:00 +7°C° 0.4 mm 5 m/s 747 mmHg 81%
    13:00 +7°C° 0.4 mm 5 m/s 746 mmHg 83%
    14:00 +7°C° 0.4 mm 5 m/s 746 mmHg 85%
    15:00 +7°C° 0.7 mm 5 m/s 746 mmHg 87%
    16:00 +7°C° 0.7 mm 5 m/s 746 mmHg 88%
    17:00 +7°C° 0.7 mm 4 m/s 745 mmHg 90%
    18:00 +7°C° 0.3 mm 4 m/s 745 mmHg 90%
    19:00 +7°C° 0.3 mm 4 m/s 745 mmHg 89%
    20:00 +6°C° 0.3 mm 4 m/s 745 mmHg 89%
    21:00 +5°C° 0 mm 3 m/s 745 mmHg 89%
    22:00 +5°C° 0 mm 3 m/s 745 mmHg 89%
    23:00 +4°C° 0 mm 3 m/s 745 mmHg 89%

    23 Outubro, Terça-feira

    Tempo Temperatura Precipitação Vento Pressão Humidade
    00:00 +4°C° 0 mm 3 m/s 745 mmHg 89%
    01:00 +4°C° 0 mm 3 m/s 745 mmHg 89%
    02:00 +4°C° 0 mm 3 m/s 744 mmHg 89%
    03:00 +3°C° 0 mm 3 m/s 744 mmHg 90%
    04:00 +3°C° 0 mm 3 m/s 744 mmHg 91%
    05:00 +3°C° 0 mm 3 m/s 744 mmHg 91%
    06:00 +3°C° 0 mm 3 m/s 743 mmHg 91%
    07:00 +3°C° 0 mm 2 m/s 743 mmHg 90%
    08:00 +3°C° 0 mm 2 m/s 743 mmHg 89%
    09:00 +5°C° 0 mm 2 m/s 743 mmHg 82%
    10:00 +5°C° 0 mm 3 m/s 742 mmHg 75%
    11:00 +7°C° 0 mm 3 m/s 742 mmHg 69%
    12:00 +8°C° 0 mm 3 m/s 741 mmHg 68%
    13:00 +8°C° 0 mm 4 m/s 741 mmHg 67%
    14:00 +8°C° 0 mm 4 m/s 740 mmHg 66%
    15:00 +7°C° 0.1 mm 4 m/s 740 mmHg 70%
    16:00 +8°C° 0.1 mm 3 m/s 740 mmHg 75%
    17:00 +7°C° 0.1 mm 3 m/s 740 mmHg 79%
    18:00 +7°C° 0 mm 3 m/s 740 mmHg 82%
    19:00 +6°C° 0 mm 2 m/s 740 mmHg 85%
    20:00 +5°C° 0 mm 2 m/s 740 mmHg 88%
    21:00 +6°C° 0 mm 1 m/s 740 mmHg 88%
    22:00 +6°C° 0 mm 1 m/s 740 mmHg 88%
    23:00 +6°C° 0 mm 1 m/s 741 mmHg 88%
    Mostrar mais